This is the latest recevied weather packets stored in our database for station/object WC4PEM-8. If no packets are shown the sender has not sent any weather packets the latest 10 day(s).
| Time | Temp. | Humidity | Pressure | Rain* | Wind** | Luminosity | Snow |
|---|---|---|---|---|---|---|---|
| 1777913160 | 25.56° C | 53% | 1016.8 hPa | 0 mm | - | - | - |
| 1777912860 | 25.56° C | 51% | 1016.7 hPa | 0 mm | - | - | - |
| 1777912560 | 25.56° C | 52% | 1016.8 hPa | 0 mm | - | - | - |
| 1777912260 | 26.11° C | 54% | 1016.9 hPa | 0 mm | - | - | - |
| 1777911960 | 25.56° C | 51% | 1017 hPa | 0 mm | - | - | - |
| 1777911660 | 25.56° C | 53% | 1017.2 hPa | 0 mm | - | - | - |
| 1777911360 | 25° C | 53% | 1017.2 hPa | 0 mm | - | - | - |
| 1777911060 | 25° C | 54% | 1017.1 hPa | 0 mm | - | - | - |
| 1777910760 | 25° C | 54% | 1017.3 hPa | 0 mm | - | - | - |
| 1777910460 | 25.56° C | 56% | 1017.4 hPa | 0 mm | - | - | - |
| 1777910160 | 25.56° C | 56% | 1017.5 hPa | 0 mm | - | - | - |
| 1777909860 | 25° C | 55% | 1017.4 hPa | 0 mm | - | - | - |
| 1777909560 | 25° C | 53% | 1017.4 hPa | 0 mm | - | - | - |
| 1777909260 | 25° C | 55% | 1017.5 hPa | 0 mm | - | - | - |
| 1777908960 | 25° C | 54% | 1017.5 hPa | 0 mm | - | - | - |
| 1777908660 | 25° C | 54% | 1017.5 hPa | 0 mm | - | - | - |
| 1777908360 | 25° C | 55% | 1017.4 hPa | 0 mm | - | - | - |
| 1777908169 | 24.44° C | 56% | 1017.4 hPa | 0 mm | - | - | - |
| 1777908060 | 24.44° C | 56% | 1017.4 hPa | 0 mm | - | - | - |
| 1777907915 | 23.89° C | 57% | 1017.4 hPa | 0 mm | - | - | - |
| 1777907760 | 24.44° C | 58% | 1017.4 hPa | 0 mm | - | - | - |
| 1777907460 | 24.44° C | 56% | 1017.5 hPa | 0 mm | - | - | - |
| 1777907160 | 24.44° C | 55% | 1017.4 hPa | 0 mm | - | - | - |
| 1777906860 | 24.44° C | 55% | 1017.3 hPa | 0 mm | - | - | - |
| 1777906560 | 24.44° C | 57% | 1017.5 hPa | 0 mm | - | - | - |
* Rain latest hour (hover to see other rain measurements)
** Current wind speed in m/s (hover to see current wind gust speed)